Home   Weather   Delémont   Past weeks

Flag for Switzerland Past Weather in Delémont, Jura, Switzerland — Yesterday and Last 2 Weeks

Now
69 °F

Mild.


Feels Like: 69 °F
Forecast: 47 / 74 °F
Wind: 5 mph from Southeast

Location: Grenchen

Current Time: Aug 20, 2017 at 3:37:20 pm

Latest Report: Aug 20, 2017 at 2:00 pm


Visibility: N/A

Pressure: 30.22 "Hg

Humidity: 42%

Dew Point: 44 °F

Location of DelémontLocation

Past Weather in Delémont — Graph

°F

Delémont Temperature Yesterday

Maximum temperature yesterday: 72 °F (at 5:00 pm)
Minimum temperature yesterday: 58 °F (at 7:00 am)
Average temperature yesterday: 66 °F

High & Low Weather Summary for the Past Weeks

 TemperatureHumidityPressure
High86 °F (Aug 18, 4:00 pm)100% (Aug 14, 6:00 am)30.26 "Hg (Aug 14, 6:00 am)
Low51 °F (Aug 10, 11:00 pm)36% (Aug 7, 4:00 pm)29.84 "Hg (Aug 18, 4:00 pm)
Average65 °F76%30.08 "Hg
* Reported Aug 5 1:00 pm — Aug 20 1:00 pm, Delémont. Weather by CustomWeather, © 2017

Note: Actual official high and low records may vary slightly from our data, if they occured in-between our weather recording intervals... More about our weather records

Advertising

Delémont Weather History for the Previous 24 Hours

Scroll right to see more
 ConditionsComfort  
Time TempWeatherWind HumidityBarometerVisibility
1:00 pm
Sun, Aug 20
68 °FMild.5 mph46%30.22 "HgN/A
12:00 pm67 °FMild.5 mph47%30.24 "HgN/A
11:00 am65 °FMild.3 mph50%30.24 "HgN/A
10:00 am63 °FMild.1 mph64%30.25 "HgN/A
9:00 am59 °FCool.1 mph71%30.25 "HgN/A
8:00 am55 °FCool.No wind88%30.26 "HgN/A
7:00 am55 °FCool.1 mph85%30.24 "HgN/A
6:00 am55 °FCool.1 mph82%30.23 "HgN/A
5:00 am56 °FCool.2 mph79%30.23 "HgN/A
4:00 am57 °FCool.2 mph82%30.22 "HgN/A
3:00 am56 °FCool.1 mph81%30.22 "HgN/A
2:00 am57 °FCool.2 mph81%30.22 "HgN/A
1:00 am58 °FCool.2 mph74%30.21 "HgN/A
12:00 am60 °FCool.2 mph69%30.21 "HgN/A
11:00 pm
Sat, Aug 19
64 °FMild.5 mph53%30.18 "HgN/A
10:00 pm64 °FMild.3 mph57%30.16 "HgN/A
9:00 pm65 °FMild.13 mph54%30.14 "HgN/A
8:00 pm67 °FMild.10 mph52%30.12 "HgN/A
7:00 pm69 °FMild.13 mph49%30.10 "HgN/A
6:00 pm71 °FMild.10 mph46%30.09 "HgN/A
5:00 pm72 °FMild.10 mph45%30.08 "HgN/A
4:00 pm72 °FMild.10 mph46%30.07 "HgN/A
3:00 pm71 °FMild.8 mph48%30.08 "HgN/A
Weather by CustomWeather, © 2017

See weather overviewHow to use our weather pages